Weather History for KHVR - January, 2013

Change the Weather History Date:

Tuesday, January 15, 2013

  Actual Average Record
Temperature  
Mean Temperature 35 °F 18 °F  
Max Temperature 39 °F 29 °F 61 °F (1973)
Min Temperature 30 °F 7 °F -43 °F (1907)
Degree Days  
Heating Degree Days 30 47  
Month to date heating degree days 668 716  
Since 1 July heating degree days 4038 4182  
Cooling Degree Days 0 0  
Month to date cooling degree days 0 0  
Year to date cooling degree days 0 0  
Moisture  
Dew Point 26 °F    
Average Humidity 75    
Maximum Humidity 85    
Minimum Humidity 64    
Precipitation  
Precipitation T in 0.01 in 0.41 in (1943)
Month to date precipitation 0.87 0.19  
Year to date precipitation 0.87 0.19  
Snow  
Snow T in 0.20 in 5.60 in (1943)
Month to date snowfall 15.0 4.0  
Since 1 July snowfall 40.0 19.0  
Snow Depth 12.00 in    
Sea Level Pressure  
Sea Level Pressure 30.00 in    
Wind  
Wind Speed 22 mph (SW)    
Max Wind Speed 33 mph    
Max Gust Speed 38 mph    
Visibility 9 miles    
Events Snow    
T = Trace of Precipitation, MM = Missing Value Source: NWS Daily Summary

Daily Weather History Graph

Daily Weather History Graph

Search for Another Location

Airport or City:

Trip Planner

Search our weather history database for the weather conditions in past years. The results will help you decide how hot, cold, wet, or windy it might be!

Date:

Astronomy

Jan. 15, 2013 Rise Set
Actual Time 8:05 AM MST 4:51 PM MST
Civil Twilight 7:30 AM MST 5:27 PM MST
Nautical Twilight 6:51 AM MST 6:06 PM MST
Astronomical Twilight 6:13 AM MST 6:44 PM MST
Moon 9:47 AM MST (1/15) 10:13 PM MST (1/15)
Length of Visible Light 9h 57m
Length of Day
8h 46m
Waxing Crescent, 20% of the Moon is Illuminated
Jan 15
Waxing Crescent
Jan 18
First Quarter
Jan 26
Full
Feb 3
Last Quarter
Feb 10
New

Hourly Weather History & Observations

Time (MST) Temp. Windchill Dew Point Humidity Pressure Visibility Wind Dir Wind Speed Gust Speed Precip Events Conditions
12:53 AM 30.9 °F 20.2 °F 27.0 °F 85% 29.99 in 10.0 mi WSW 15.0 mph - 0.00 in   Overcast
1:38 AM 33.8 °F 22.5 °F 28.4 °F 81% 29.90 in 5.0 mi West 19.6 mph - 0.00 in Snow Light Snow
1:53 AM 33.1 °F 22.2 °F 28.0 °F 82% 29.98 in 7.0 mi West 17.3 mph - 0.00 in Snow Light Snow
2:37 AM 30.2 °F 16.2 °F 24.8 °F 80% 29.89 in 10.0 mi WSW 25.3 mph 28.8 mph 0.00 in   Overcast
2:53 AM 30.9 °F 17.5 °F 24.1 °F 76% 30.00 in 9.0 mi West 24.2 mph - 0.00 in   Overcast
3:53 AM 30.0 °F 16.9 °F 24.1 °F 79% 30.01 in 10.0 mi SW 21.9 mph 33.4 mph N/A   Overcast
4:53 AM 30.9 °F 16.9 °F 24.1 °F 76% 29.98 in 9.0 mi SW 26.5 mph 34.5 mph 0.00 in Snow Light Snow
5:53 AM 32.0 °F 18.6 °F 25.0 °F 75% 29.98 in 9.0 mi SW 25.3 mph 34.5 mph 0.00 in Snow Light Snow
6:53 AM 32.0 °F 18.9 °F 25.0 °F 75% 29.99 in 10.0 mi SW 24.2 mph 29.9 mph 0.00 in   Overcast
7:53 AM 30.9 °F 18.4 °F 25.0 °F 79% 29.99 in 10.0 mi WSW 20.7 mph 28.8 mph 0.00 in Snow Light Snow
8:53 AM 32.0 °F 18.6 °F 25.0 °F 75% 29.99 in 10.0 mi SW 25.3 mph 33.4 mph 0.00 in   Overcast
9:53 AM 32.0 °F 18.6 °F 26.1 °F 79% 30.00 in 10.0 mi SW 25.3 mph 31.1 mph 0.00 in   Mostly Cloudy
10:53 AM 33.1 °F 19.1 °F 26.1 °F 75% 30.00 in 7.0 mi SW 29.9 mph 38.0 mph 0.00 in Snow Light Snow
11:53 AM 34.0 °F 20.5 °F 26.1 °F 73% 29.99 in 10.0 mi SW 28.8 mph 34.5 mph 0.00 in Snow Light Snow
12:53 PM 34.0 °F 20.8 °F 27.0 °F 75% 30.00 in 9.0 mi SW 27.6 mph - 0.00 in Snow Light Snow
1:53 PM 35.1 °F 24.5 °F 28.0 °F 76% 30.01 in 10.0 mi SW 18.4 mph 27.6 mph 0.00 in   Overcast
2:53 PM 36.0 °F 25.3 °F 28.0 °F 73% 30.01 in 10.0 mi SW 19.6 mph - N/A   Overcast
3:53 PM 36.0 °F 31.1 °F 28.0 °F 73% 30.03 in 10.0 mi SSE 5.8 mph - N/A   Overcast
4:53 PM 37.9 °F 27.3 °F 28.0 °F 68% 30.03 in 10.0 mi WSW 21.9 mph - N/A   Overcast
5:53 PM 37.0 °F 28.1 °F 27.0 °F 67% 30.05 in 10.0 mi WSW 15.0 mph - N/A   Overcast
6:53 PM 36.0 °F 27.1 °F 28.0 °F 73% 30.06 in 10.0 mi SW 13.8 mph - N/A   Overcast
7:53 PM 37.0 °F 26.2 °F 28.0 °F 70% 30.04 in 10.0 mi SW 21.9 mph 27.6 mph N/A   Overcast
8:53 PM 36.0 °F 24.2 °F 27.0 °F 70% 30.03 in 9.0 mi SW 24.2 mph 35.7 mph 0.00 in Snow Light Snow
9:53 PM 35.1 °F 22.0 °F 26.1 °F 70% 30.01 in 9.0 mi SW 28.8 mph - 0.00 in   Overcast
10:53 PM 34.0 °F 22.7 °F 25.0 °F 70% 30.01 in 10.0 mi SW 19.6 mph - 0.00 in   Overcast
11:53 PM 36.0 °F 25.3 °F 25.0 °F 64% 30.00 in 10.0 mi SW 19.6 mph - N/A   Overcast